^^
B2 Weather Station Historical Data
Daily Summary for November 4, 2018 Units:  English    Metric   Both
Daily Weekly Monthly Yearly Custom
  High: Low: Average:
Temperature: 52.1 °F 44.6 °F 48.7 °F
Dew Point: 50.2 °F 42.1 °F 45.8 °F
Humidity: 94% 78% 90%
Wind Speed: 27.0mph 3.5mph 13mph
Wind Gust: 18.3mph - -
Wind- - SE
Pressure: 30.20 in 29.82 in -
Precipitation: 0.35 in    
Historical Graphs
 
 
Tabular Data for November 4, 2018
Time Temperature Dew Point Pressure Wind Wind Speed Wind Gust Humidity Rainfall Rate (Hourly) solar
00:04 44.8 °F 42.3 °F 30.20 in ESE 5.8 mph 4.0 mph 91% 0.00 in 0.00 W/m2
00:09 44.7 °F 42.2 °F 30.19 in ESE 5.8 mph 2.0 mph 91% 0.00 in 0.00 W/m2
00:14 44.6 °F 42.1 °F 30.19 in East 8.1 mph 3.6 mph 91% 0.00 in 0.00 W/m2
00:19 44.6 °F 42.1 °F 30.18 in ESE 10.4 mph 5.1 mph 91% 0.00 in 0.00 W/m2
00:24 44.7 °F 42.5 °F 30.18 in ESE 10.0 mph 5.6 mph 92% 0.00 in 0.00 W/m2
00:29 44.8 °F 42.3 °F 30.18 in ESE 8.1 mph 6.1 mph 91% 0.00 in 0.00 W/m2
00:34 44.8 °F 42.6 °F 30.16 in East 10.4 mph 6.1 mph 92% 0.00 in 0.00 W/m2
00:39 44.8 °F 42.6 °F 30.16 in SE 13.8 mph 7.7 mph 92% 0.00 in 0.00 W/m2
00:44 44.8 °F 42.6 °F 30.16 in ESE 11.5 mph 6.9 mph 92% 0.00 in 0.00 W/m2
00:49 44.8 °F 42.6 °F 30.16 in ESE 11.5 mph 7.4 mph 92% 0.01 in 0.00 W/m2
00:54 44.8 °F 42.6 °F 30.16 in East 12.7 mph 8.3 mph 92% 0.01 in 0.00 W/m2
00:59 44.8 °F 42.6 °F 30.15 in ESE 10.4 mph 6.2 mph 92% 0.01 in 0.00 W/m2
01:04 44.8 °F 42.6 °F 30.16 in SE 11.5 mph 6.6 mph 92% 0.01 in 0.00 W/m2
01:09 44.8 °F 42.6 °F 30.15 in ESE 12.0 mph 8.3 mph 92% 0.01 in 0.00 W/m2
01:14 44.9 °F 42.7 °F 30.15 in East 10.4 mph 7.1 mph 92% 0.01 in 0.00 W/m2
01:19 45.0 °F 42.8 °F 30.16 in ESE 11.5 mph 8.1 mph 92% 0.01 in 0.00 W/m2
01:24 45.1 °F 42.9 °F 30.16 in ESE 15.0 mph 5.8 mph 92% 0.01 in 0.00 W/m2
01:29 45.2 °F 43.0 °F 30.16 in SE 11.5 mph 7.9 mph 92% 0.01 in 0.00 W/m2
01:34 45.2 °F 43.0 °F 30.16 in ESE 11.5 mph 7.1 mph 92% 0.01 in 0.00 W/m2
01:39 45.3 °F 43.1 °F 30.16 in ESE 10.4 mph 5.1 mph 92% 0.01 in 0.00 W/m2
01:44 45.3 °F 43.1 °F 30.16 in ESE 10.4 mph 5.3 mph 92% 0.01 in 0.00 W/m2
01:49 45.4 °F 43.2 °F 30.15 in SE 10.4 mph 6.0 mph 92% 0.00 in 0.00 W/m2
01:54 45.5 °F 43.3 °F 30.16 in ESE 9.2 mph 6.8 mph 92% 0.00 in 0.00 W/m2
01:59 45.6 °F 43.1 °F 30.16 in SE 9.2 mph 5.0 mph 91% 0.00 in 0.00 W/m2
01:04 45.7 °F 43.2 °F 30.16 in ESE 10.4 mph 5.7 mph 91% 0.00 in 0.00 W/m2
01:09 45.8 °F 43.3 °F 30.16 in SE 6.9 mph 5.1 mph 91% 0.00 in 0.00 W/m2
01:14 45.9 °F 43.4 °F 30.16 in SE 11.5 mph 7.3 mph 91% 0.00 in 0.00 W/m2
01:19 46.0 °F 43.2 °F 30.16 in ESE 8.1 mph 4.2 mph 90% 0.00 in 0.00 W/m2
01:24 46.0 °F 43.2 °F 30.16 in SE 8.1 mph 5.6 mph 90% 0.00 in 0.00 W/m2
01:29 46.1 °F 43.3 °F 30.16 in SE 4.6 mph 2.2 mph 90% 0.00 in 0.00 W/m2
01:34 46.1 °F 43.3 °F 30.17 in SE 3.5 mph 4.1 mph 90% 0.00 in 0.00 W/m2
01:39 46.2 °F 43.4 °F 30.16 in ESE 4.6 mph 1.5 mph 90% 0.00 in 0.00 W/m2
01:44 46.2 °F 43.4 °F 30.16 in SE 5.0 mph 4.0 mph 90% 0.00 in 0.00 W/m2
01:49 46.2 °F 43.4 °F 30.16 in ESE 6.9 mph 2.6 mph 90% 0.00 in 0.00 W/m2
01:54 46.2 °F 43.4 °F 30.16 in SE 4.6 mph 2.5 mph 90% 0.00 in 0.00 W/m2
01:59 46.3 °F 43.5 °F 30.16 in SE 8.1 mph 2.3 mph 90% 0.00 in 0.00 W/m2
02:04 46.3 °F 43.5 °F 30.16 in SE 8.1 mph 3.6 mph 90% 0.00 in 0.00 W/m2
02:09 46.3 °F 43.2 °F 30.16 in SE 6.9 mph 3.6 mph 89% 0.00 in 0.00 W/m2
02:14 46.4 °F 43.3 °F 30.16 in SE 8.1 mph 4.1 mph 89% 0.00 in 0.00 W/m2
02:19 46.5 °F 43.4 °F 30.16 in SE 8.1 mph 4.0 mph 89% 0.00 in 0.00 W/m2
02:24 46.5 °F 43.4 °F 30.15 in ESE 8.0 mph 2.3 mph 89% 0.00 in 0.00 W/m2
02:29 46.5 °F 43.4 °F 30.15 in ESE 5.8 mph 2.0 mph 89% 0.00 in 0.00 W/m2
02:34 46.4 °F 43.3 °F 30.14 in SE 6.9 mph 2.8 mph 89% 0.00 in 0.00 W/m2
02:39 46.4 °F 43.3 °F 30.14 in ESE 7.0 mph 5.7 mph 89% 0.00 in 0.00 W/m2
02:44 46.4 °F 43.3 °F 30.14 in SE 9.2 mph 7.0 mph 89% 0.00 in 0.00 W/m2
02:49 46.4 °F 43.3 °F 30.14 in SE 7.0 mph 5.3 mph 89% 0.00 in 0.00 W/m2
02:54 46.5 °F 43.4 °F 30.14 in ESE 9.2 mph 2.3 mph 89% 0.00 in 0.00 W/m2
02:59 46.5 °F 43.4 °F 30.14 in ESE 8.1 mph 5.8 mph 89% 0.00 in 0.00 W/m2
03:04 46.5 °F 43.4 °F 30.13 in SE 4.6 mph 3.7 mph 89% 0.00 in 0.00 W/m2
03:09 46.4 °F 43.6 °F 30.13 in ESE 8.1 mph 5.8 mph 90% 0.00 in 0.00 W/m2
03:14 46.4 °F 43.6 °F 30.13 in SE 10.4 mph 7.2 mph 90% 0.00 in 0.00 W/m2
03:19 46.3 °F 43.5 °F 30.12 in SE 10.4 mph 7.1 mph 90% 0.00 in 0.00 W/m2
03:24 46.4 °F 43.6 °F 30.12 in ESE 10.4 mph 7.1 mph 90% 0.00 in 0.00 W/m2
03:29 46.4 °F 43.6 °F 30.12 in ESE 13.8 mph 7.3 mph 90% 0.00 in 0.00 W/m2
03:34 46.5 °F 43.7 °F 30.12 in SE 15.0 mph 7.2 mph 90% 0.00 in 0.00 W/m2
03:39 46.5 °F 43.4 °F 30.12 in ESE 10.4 mph 5.4 mph 89% 0.00 in 0.00 W/m2
03:44 46.5 °F 43.4 °F 30.11 in ESE 11.5 mph 6.0 mph 89% 0.00 in 0.00 W/m2
03:49 46.5 °F 43.4 °F 30.11 in SE 15.0 mph 7.3 mph 89% 0.00 in 0.00 W/m2
03:54 46.5 °F 43.4 °F 30.11 in ESE 13.8 mph 8.3 mph 89% 0.00 in 0.00 W/m2
03:59 46.5 °F 43.4 °F 30.10 in ESE 12.0 mph 12.0 mph 89% 0.00 in 0.00 W/m2
04:04 46.4 °F 43.3 °F 30.10 in SE 16.1 mph 10.1 mph 89% 0.00 in 0.00 W/m2
04:09 46.4 °F 43.3 °F 30.10 in ESE 11.5 mph 5.3 mph 89% 0.00 in 0.00 W/m2
04:14 46.4 °F 43.3 °F 30.10 in ESE 9.2 mph 5.5 mph 89% 0.00 in 0.00 W/m2
04:19 46.4 °F 43.3 °F 30.09 in ESE 15.0 mph 5.8 mph 89% 0.00 in 0.00 W/m2
04:24 46.5 °F 43.4 °F 30.09 in ESE 12.7 mph 7.0 mph 89% 0.00 in 0.00 W/m2
04:29 46.5 °F 43.1 °F 30.09 in ESE 10.4 mph 6.0 mph 88% 0.00 in 0.00 W/m2
04:34 46.6 °F 43.2 °F 30.09 in ESE 12.7 mph 5.7 mph 88% 0.00 in 0.00 W/m2
04:39 46.6 °F 42.9 °F 30.09 in ESE 12.7 mph 7.5 mph 87% 0.00 in 0.00 W/m2
04:44 46.6 °F 43.2 °F 30.09 in SE 15.0 mph 10.8 mph 88% 0.00 in 0.00 W/m2
04:49 46.7 °F 43.3 °F 30.09 in SE 11.5 mph 6.6 mph 88% 0.00 in 0.00 W/m2
04:54 46.7 °F 43.0 °F 30.10 in ESE 11.5 mph 8.0 mph 87% 0.00 in 0.00 W/m2
04:59 46.7 °F 43.0 °F 30.09 in SE 10.4 mph 6.7 mph 87% 0.00 in 0.00 W/m2
05:04 46.7 °F 43.0 °F 30.09 in ESE 11.5 mph 6.9 mph 87% 0.00 in 0.00 W/m2
05:09 46.8 °F 43.1 °F 30.08 in ESE 15.0 mph 7.1 mph 87% 0.00 in 0.00 W/m2
05:14 46.8 °F 42.8 °F 30.08 in East 12.7 mph 6.9 mph 86% 0.00 in 0.00 W/m2
05:19 46.9 °F 42.9 °F 30.08 in ESE 12.7 mph 9.2 mph 86% 0.00 in 0.00 W/m2
05:24 47.0 °F 43.0 °F 30.07 in ESE 12.7 mph 8.4 mph 86% 0.00 in 0.00 W/m2
05:29 47.0 °F 43.0 °F 30.07 in SE 14.0 mph 9.2 mph 86% 0.00 in 0.00 W/m2
05:34 47.1 °F 42.8 °F 30.07 in ESE 15.0 mph 10.5 mph 85% 0.00 in 0.00 W/m2
05:39 47.1 °F 43.1 °F 30.07 in SE 15.0 mph 8.3 mph 86% 0.00 in 0.00 W/m2
05:44 47.1 °F 42.8 °F 30.07 in ESE 15.0 mph 8.2 mph 85% 0.00 in 0.00 W/m2
05:49 47.1 °F 42.8 °F 30.07 in SE 11.5 mph 8.4 mph 85% 0.00 in 0.00 W/m2
05:54 47.1 °F 42.8 °F 30.06 in ESE 11.5 mph 8.4 mph 85% 0.00 in 0.00 W/m2
05:59 47.0 °F 42.7 °F 30.06 in SE 11.5 mph 8.4 mph 85% 0.00 in 0.00 W/m2
06:04 47.0 °F 42.7 °F 30.07 in ESE 11.5 mph 9.7 mph 85% 0.00 in 0.00 W/m2
06:09 47.1 °F 42.8 °F 30.07 in ESE 11.5 mph 8.7 mph 85% 0.00 in 0.00 W/m2
06:14 47.2 °F 42.9 °F 30.07 in SE 12.7 mph 8.5 mph 85% 0.00 in 0.00 W/m2
06:19 47.2 °F 42.9 °F 30.07 in ESE 11.5 mph 9.8 mph 85% 0.00 in 0.00 W/m2
06:24 47.3 °F 42.7 °F 30.06 in SE 11.5 mph 10.6 mph 84% 0.00 in 0.00 W/m2
06:29 47.4 °F 42.8 °F 30.06 in ESE 11.5 mph 5.6 mph 84% 0.00 in 0.00 W/m2
06:34 47.4 °F 42.8 °F 30.06 in SE 10.4 mph 6.4 mph 84% 0.00 in 0.00 W/m2
06:39 47.4 °F 42.8 °F 30.06 in ESE 16.1 mph 8.6 mph 84% 0.00 in 5.00 W/m2
06:44 47.5 °F 42.9 °F 30.06 in ESE 13.8 mph 10.8 mph 84% 0.00 in 5.00 W/m2
06:49 47.7 °F 43.1 °F 30.06 in SE 12.7 mph 8.8 mph 84% 0.00 in 5.00 W/m2
06:54 47.8 °F 42.9 °F 30.05 in SE 16.0 mph 9.7 mph 83% 0.00 in 9.00 W/m2
06:59 47.9 °F 43.0 °F 30.05 in SE 12.7 mph 9.5 mph 83% 0.00 in 12.00 W/m2
07:04 47.9 °F 43.0 °F 30.05 in SE 11.5 mph 8.9 mph 83% 0.00 in 14.00 W/m2
07:09 47.9 °F 43.0 °F 30.05 in ESE 15.0 mph 8.5 mph 83% 0.00 in 16.00 W/m2
07:14 47.9 °F 43.0 °F 30.04 in ESE 12.7 mph 9.3 mph 83% 0.00 in 25.00 W/m2
07:19 47.9 °F 43.0 °F 30.04 in East 17.3 mph 10.2 mph 83% 0.00 in 23.00 W/m2
07:24 48.0 °F 43.1 °F 30.04 in SE 15.0 mph 9.4 mph 83% 0.00 in 32.00 W/m2
07:29 48.1 °F 42.9 °F 30.03 in ESE 17.3 mph 7.8 mph 82% 0.00 in 33.00 W/m2
07:34 48.1 °F 42.9 °F 30.03 in SE 13.8 mph 9.7 mph 82% 0.00 in 33.00 W/m2
07:39 48.2 °F 43.0 °F 30.03 in ESE 13.8 mph 9.5 mph 82% 0.00 in 33.00 W/m2
07:44 48.1 °F 43.2 °F 30.03 in ESE 15.0 mph 7.2 mph 83% 0.00 in 28.00 W/m2
07:49 48.2 °F 43.3 °F 30.03 in ESE 16.1 mph 8.8 mph 83% 0.00 in 23.00 W/m2
07:54 48.2 °F 43.0 °F 30.03 in SE 12.7 mph 9.8 mph 82% 0.00 in 33.00 W/m2
07:59 48.3 °F 43.1 °F 30.03 in SE 13.8 mph 9.0 mph 82% 0.00 in 42.00 W/m2
08:04 48.4 °F 43.2 °F 30.02 in ESE 11.5 mph 11.6 mph 82% 0.00 in 23.00 W/m2
08:09 48.5 °F 43.3 °F 30.02 in SE 14.0 mph 9.1 mph 82% 0.00 in 21.00 W/m2
08:14 48.6 °F 43.0 °F 30.02 in SSE 13.8 mph 12.7 mph 81% 0.00 in 28.00 W/m2
08:16 48.8 °F 43.2 °F 30.02 in SE 15.0 mph 11.0 mph 81% 0.00 in 30.00 W/m2
08:24 49.1 °F 43.2 °F 30.02 in SE 15.0 mph 10.7 mph 80% 0.00 in 21.00 W/m2
08:29 49.2 °F 43.3 °F 30.02 in ESE 12.7 mph 8.8 mph 80% 0.00 in 25.00 W/m2
08:34 49.3 °F 43.1 °F 30.02 in SE 13.8 mph 10.2 mph 79% 0.00 in 30.00 W/m2
08:39 49.5 °F 43.3 °F 30.02 in SE 15.0 mph 7.7 mph 79% 0.00 in 25.00 W/m2
08:44 49.6 °F 43.4 °F 30.02 in SE 16.1 mph 12.5 mph 79% 0.00 in 21.00 W/m2
08:49 49.7 °F 43.1 °F 30.02 in SE 19.6 mph 10.8 mph 78% 0.00 in 23.00 W/m2
08:54 49.6 °F 43.4 °F 30.03 in SSE 17.3 mph 11.9 mph 79% 0.00 in 25.00 W/m2
08:59 49.5 °F 43.6 °F 30.03 in SSE 14.0 mph 12.1 mph 80% 0.00 in 35.00 W/m2
09:04 49.3 °F 43.7 °F 30.02 in SSE 18.4 mph 11.5 mph 81% 0.00 in 33.00 W/m2
09:09 49.2 °F 43.6 °F 30.02 in SE 19.6 mph 11.5 mph 81% 0.00 in 25.00 W/m2
09:14 49.2 °F 43.6 °F 30.02 in ESE 19.6 mph 11.5 mph 81% 0.00 in 28.00 W/m2
09:19 49.2 °F 43.9 °F 30.03 in SE 15.0 mph 12.2 mph 82% 0.00 in 35.00 W/m2
09:24 49.0 °F 43.7 °F 30.03 in SE 12.7 mph 9.7 mph 82% 0.00 in 30.00 W/m2
09:29 48.9 °F 44.0 °F 30.02 in SSE 18.4 mph 12.4 mph 83% 0.00 in 23.00 W/m2
09:34 48.9 °F 44.0 °F 30.02 in SE 8.1 mph 8.0 mph 83% 0.00 in 26.00 W/m2
09:39 48.8 °F 44.2 °F 30.02 in SE 15.0 mph 9.5 mph 84% 0.00 in 32.00 W/m2
09:44 48.7 °F 44.7 °F 30.02 in SE 11.5 mph 8.7 mph 86% 0.00 in 40.00 W/m2
09:49 48.8 °F 44.5 °F 30.01 in SE 16.1 mph 10.2 mph 85% 0.00 in 47.00 W/m2
09:54 49.0 °F 44.7 °F 30.01 in SE 11.5 mph 10.7 mph 85% 0.00 in 65.00 W/m2
09:59 49.4 °F 44.8 °F 30.00 in SSE 13.8 mph 11.8 mph 84% 0.00 in 72.00 W/m2
10:04 49.6 °F 45.0 °F 30.00 in SE 13.8 mph 9.3 mph 84% 0.00 in 77.00 W/m2
10:09 49.7 °F 45.1 °F 30.00 in SE 16.1 mph 10.4 mph 84% 0.00 in 70.00 W/m2
10:14 49.9 °F 45.3 °F 30.00 in SE 15.0 mph 8.4 mph 84% 0.00 in 58.00 W/m2
10:19 50.0 °F 45.4 °F 30.00 in SE 13.8 mph 8.8 mph 84% 0.00 in 51.00 W/m2
10:24 50.0 °F 45.4 °F 30.00 in ESE 13.8 mph 9.1 mph 84% 0.00 in 67.00 W/m2
10:29 50.0 °F 45.7 °F 29.99 in SE 14.0 mph 11.5 mph 85% 0.00 in 65.00 W/m2
10:34 49.9 °F 45.6 °F 29.99 in SE 18.4 mph 11.6 mph 85% 0.00 in 62.00 W/m2
10:39 49.9 °F 45.6 °F 29.99 in ESE 16.1 mph 12.0 mph 85% 0.00 in 63.00 W/m2
10:44 50.1 °F 45.8 °F 29.98 in SSE 13.0 mph 11.1 mph 85% 0.00 in 70.00 W/m2
10:49 50.1 °F 45.8 °F 29.98 in ESE 13.8 mph 10.9 mph 85% 0.00 in 69.00 W/m2
10:54 50.2 °F 46.2 °F 29.98 in SE 15.0 mph 10.4 mph 86% 0.00 in 46.00 W/m2
10:59 50.1 °F 46.1 °F 29.98 in SE 13.8 mph 8.3 mph 86% 0.00 in 37.00 W/m2
11:04 50.0 °F 46.3 °F 29.98 in SE 12.7 mph 9.5 mph 87% 0.00 in 54.00 W/m2
11:09 49.9 °F 46.5 °F 29.97 in SE 16.1 mph 11.4 mph 88% 0.01 in 69.00 W/m2
11:14 49.9 °F 46.8 °F 29.97 in SE 13.8 mph 10.6 mph 89% 0.01 in 47.00 W/m2
11:19 49.8 °F 46.7 °F 29.97 in SSE 15.0 mph 7.2 mph 89% 0.01 in 67.00 W/m2
11:24 49.7 °F 46.9 °F 29.96 in SE 17.3 mph 8.1 mph 90% 0.01 in 70.00 W/m2
11:29 49.6 °F 46.8 °F 29.96 in SE 15.0 mph 8.3 mph 90% 0.02 in 53.00 W/m2
11:34 49.6 °F 47.1 °F 29.95 in SE 10.4 mph 7.9 mph 91% 0.02 in 54.00 W/m2
11:39 49.5 °F 47.0 °F 29.95 in SE 16.1 mph 7.2 mph 91% 0.02 in 65.00 W/m2
11:44 49.6 °F 47.1 °F 29.95 in SE 11.5 mph 5.4 mph 91% 0.02 in 72.00 W/m2
11:49 49.6 °F 47.1 °F 29.94 in SE 10.4 mph 5.2 mph 91% 0.02 in 72.00 W/m2
11:54 49.7 °F 47.2 °F 29.94 in ESE 11.5 mph 5.5 mph 91% 0.03 in 74.00 W/m2
11:59 49.8 °F 47.3 °F 29.93 in ESE 11.5 mph 5.6 mph 91% 0.03 in 63.00 W/m2
12:04 49.9 °F 47.4 °F 29.93 in SE 9.2 mph 5.6 mph 91% 0.03 in 58.00 W/m2
12:09 49.9 °F 47.4 °F 29.93 in SSE 8.1 mph 7.4 mph 91% 0.02 in 53.00 W/m2
12:14 49.9 °F 47.4 °F 29.92 in SE 11.5 mph 5.7 mph 91% 0.02 in 65.00 W/m2
12:19 50.1 °F 47.6 °F 29.92 in SSE 11.5 mph 8.7 mph 91% 0.02 in 84.00 W/m2
12:24 50.3 °F 47.8 °F 29.91 in ESE 11.5 mph 4.7 mph 91% 0.02 in 109.00 W/m2
12:29 50.5 °F 48.0 °F 29.91 in SE 11.5 mph 8.3 mph 91% 0.01 in 139.00 W/m2
12:34 50.8 °F 48.0 °F 29.90 in SE 10.4 mph 5.9 mph 90% 0.01 in 144.00 W/m2
12:39 51.1 °F 48.3 °F 29.90 in SSE 11.0 mph 6.1 mph 90% 0.01 in 146.00 W/m2
12:44 51.3 °F 48.5 °F 29.90 in SE 11.5 mph 8.0 mph 90% 0.01 in 98.00 W/m2
12:49 51.4 °F 48.3 °F 29.90 in ESE 13.8 mph 9.8 mph 89% 0.01 in 97.00 W/m2
12:54 51.6 °F 48.5 °F 29.90 in ESE 10.4 mph 7.7 mph 89% 0.00 in 102.00 W/m2
12:59 51.7 °F 48.6 °F 29.89 in SE 13.8 mph 9.0 mph 89% 0.00 in 97.00 W/m2
13:04 51.9 °F 48.5 °F 29.89 in SSE 16.1 mph 6.8 mph 88% 0.00 in 98.00 W/m2
13:09 52.0 °F 48.9 °F 29.89 in SE 15.0 mph 6.2 mph 89% 0.00 in 86.00 W/m2
13:14 52.0 °F 48.9 °F 29.89 in SE 11.5 mph 7.3 mph 89% 0.00 in 58.00 W/m2
13:19 52.1 °F 49.0 °F 29.89 in SE 13.8 mph 7.2 mph 89% 0.00 in 49.00 W/m2
13:24 52.1 °F 49.0 °F 29.88 in ESE 11.5 mph 8.1 mph 89% 0.00 in 56.00 W/m2
13:29 52.1 °F 49.0 °F 29.88 in SE 11.5 mph 7.0 mph 89% 0.00 in 37.00 W/m2
13:34 52.1 °F 49.3 °F 29.88 in SE 15.0 mph 10.1 mph 90% 0.00 in 49.00 W/m2
13:39 52.1 °F 49.3 °F 29.88 in SE 8.1 mph 4.8 mph 90% 0.00 in 37.00 W/m2
13:44 52.1 °F 49.3 °F 29.87 in SE 9.2 mph 5.2 mph 90% 0.00 in 23.00 W/m2
13:49 52.0 °F 49.2 °F 29.88 in SSE 11.5 mph 8.0 mph 90% 0.00 in 23.00 W/m2
13:54 51.9 °F 49.4 °F 29.88 in SSE 11.5 mph 6.6 mph 91% 0.01 in 18.00 W/m2
13:59 51.8 °F 49.3 °F 29.88 in SSE 9.0 mph 6.8 mph 91% 0.02 in 14.00 W/m2
14:04 51.8 °F 49.5 °F 29.87 in SE 17.3 mph 8.3 mph 92% 0.03 in 32.00 W/m2
14:09 51.9 °F 49.6 °F 29.87 in SE 12.7 mph 11.4 mph 92% 0.04 in 30.00 W/m2
14:14 51.9 °F 49.6 °F 29.87 in SSE 16.1 mph 10.9 mph 92% 0.05 in 18.00 W/m2
14:19 51.9 °F 49.6 °F 29.86 in SE 15.0 mph 9.3 mph 92% 0.06 in 16.00 W/m2
14:24 51.8 °F 49.8 °F 29.86 in SE 12.7 mph 8.0 mph 93% 0.07 in 16.00 W/m2
14:29 51.8 °F 49.8 °F 29.86 in SE 14.0 mph 9.7 mph 93% 0.09 in 11.00 W/m2
14:34 51.7 °F 49.7 °F 29.86 in SSE 11.5 mph 6.5 mph 93% 0.09 in 14.00 W/m2
14:39 51.7 °F 49.7 °F 29.86 in SSE 17.3 mph 9.7 mph 93% 0.10 in 18.00 W/m2
14:44 51.7 °F 49.7 °F 29.86 in SSE 16.1 mph 10.1 mph 93% 0.11 in 12.00 W/m2
14:49 51.7 °F 49.7 °F 29.86 in SE 18.4 mph 8.2 mph 93% 0.11 in 12.00 W/m2
14:54 51.7 °F 49.7 °F 29.86 in SE 11.5 mph 12.6 mph 93% 0.10 in 14.00 W/m2
14:59 51.8 °F 50.1 °F 29.86 in SSE 18.4 mph 11.5 mph 94% 0.09 in 12.00 W/m2
15:04 51.8 °F 49.8 °F 29.85 in SE 15.0 mph 10.9 mph 93% 0.08 in 7.00 W/m2
15:09 51.9 °F 49.9 °F 29.86 in SSE 17.3 mph 10.4 mph 93% 0.08 in 5.00 W/m2
15:14 51.9 °F 50.2 °F 29.86 in SE 12.7 mph 10.5 mph 94% 0.08 in 5.00 W/m2
15:19 51.9 °F 50.2 °F 29.85 in SE 15.0 mph 10.4 mph 94% 0.07 in 9.00 W/m2
15:24 51.9 °F 50.2 °F 29.85 in SE 16.1 mph 10.4 mph 94% 0.07 in 5.00 W/m2
15:29 51.8 °F 50.1 °F 29.85 in SE 12.7 mph 9.2 mph 94% 0.06 in 0.00 W/m2
15:34 51.8 °F 50.1 °F 29.85 in SE 15.0 mph 9.3 mph 94% 0.06 in 5.00 W/m2
15:39 51.8 °F 50.1 °F 29.85 in SSE 17.3 mph 11.1 mph 94% 0.06 in 5.00 W/m2
15:44 51.9 °F 50.2 °F 29.85 in SSE 15.0 mph 9.7 mph 94% 0.05 in 5.00 W/m2
15:49 51.9 °F 50.2 °F 29.85 in SE 24.2 mph 15.4 mph 94% 0.05 in 0.00 W/m2
15:54 51.9 °F 50.2 °F 29.85 in SE 16.0 mph 13.7 mph 94% 0.06 in 0.00 W/m2
15:59 51.9 °F 50.2 °F 29.85 in SE 18.4 mph 12.4 mph 94% 0.07 in 7.00 W/m2
16:04 51.9 °F 50.2 °F 29.85 in South 13.8 mph 12.5 mph 94% 0.07 in 0.00 W/m2
16:09 51.8 °F 50.1 °F 29.84 in SSE 17.3 mph 11.0 mph 94% 0.06 in 0.00 W/m2
16:14 51.8 °F 50.1 °F 29.84 in SSE 15.0 mph 11.5 mph 94% 0.05 in 0.00 W/m2
16:19 51.8 °F 50.1 °F 29.84 in SSE 17.3 mph 10.6 mph 94% 0.06 in 0.00 W/m2
16:24 51.7 °F 50.0 °F 29.84 in SSE 19.6 mph 12.2 mph 94% 0.05 in 0.00 W/m2
16:29 51.7 °F 50.0 °F 29.84 in SSE 19.6 mph 12.9 mph 94% 0.04 in 0.00 W/m2
16:34 51.7 °F 50.0 °F 29.84 in SSE 16.1 mph 12.9 mph 94% 0.04 in 0.00 W/m2
16:39 51.7 °F 50.0 °F 29.84 in SSE 17.3 mph 11.5 mph 94% 0.04 in 0.00 W/m2
16:44 51.6 °F 49.9 °F 29.84 in South 17.3 mph 10.0 mph 94% 0.05 in 0.00 W/m2
16:49 51.6 °F 49.9 °F 29.84 in SSE 19.6 mph 12.1 mph 94% 0.06 in 0.00 W/m2
16:54 51.5 °F 49.8 °F 29.84 in SSE 17.3 mph 12.6 mph 94% 0.06 in 0.00 W/m2
16:59 51.5 °F 49.8 °F 29.84 in SSE 18.4 mph 12.5 mph 94% 0.05 in 0.00 W/m2
17:04 51.5 °F 49.8 °F 29.84 in SSE 19.6 mph 11.0 mph 94% 0.05 in 0.00 W/m2
17:09 51.5 °F 49.8 °F 29.84 in SSE 17.3 mph 12.5 mph 94% 0.05 in 0.00 W/m2
17:14 51.4 °F 49.7 °F 29.84 in SSE 16.1 mph 12.2 mph 94% 0.05 in 0.00 W/m2
17:19 51.3 °F 49.6 °F 29.84 in SSE 19.6 mph 16.0 mph 94% 0.05 in 0.00 W/m2
17:24 51.2 °F 49.5 °F 29.84 in SE 23.0 mph 12.9 mph 94% 0.05 in 0.00 W/m2
17:29 51.2 °F 49.5 °F 29.84 in SSE 18.0 mph 13.7 mph 94% 0.05 in 0.00 W/m2
17:34 51.1 °F 49.4 °F 29.83 in SSE 20.7 mph 14.9 mph 94% 0.05 in 0.00 W/m2
17:39 51.1 °F 49.4 °F 29.84 in SE 21.9 mph 11.0 mph 94% 0.04 in 0.00 W/m2
17:44 51.0 °F 49.3 °F 29.83 in South 17.3 mph 10.7 mph 94% 0.03 in 0.00 W/m2
17:49 51.0 °F 49.3 °F 29.83 in SSE 19.6 mph 12.2 mph 94% 0.02 in 0.00 W/m2
17:54 51.0 °F 49.3 °F 29.83 in SSE 18.4 mph 12.7 mph 94% 0.01 in 0.00 W/m2
17:59 51.0 °F 49.3 °F 29.83 in South 21.9 mph 12.8 mph 94% 0.01 in 0.00 W/m2
18:04 51.0 °F 49.3 °F 29.83 in SSE 20.7 mph 18.3 mph 94% 0.01 in 0.00 W/m2
18:09 50.9 °F 49.2 °F 29.83 in South 21.0 mph 15.5 mph 94% 0.01 in 0.00 W/m2
18:14 50.9 °F 49.2 °F 29.83 in SSE 17.3 mph 12.1 mph 94% 0.01 in 0.00 W/m2
18:19 50.9 °F 49.2 °F 29.83 in SSE 18.4 mph 13.6 mph 94% 0.01 in 0.00 W/m2
18:24 50.8 °F 49.1 °F 29.83 in SSE 20.7 mph 15.7 mph 94% 0.01 in 0.00 W/m2
18:29 50.8 °F 49.1 °F 29.83 in SSE 21.9 mph 13.8 mph 94% 0.02 in 0.00 W/m2
18:34 50.8 °F 49.1 °F 29.83 in SSE 16.1 mph 12.0 mph 94% 0.02 in 0.00 W/m2
18:39 50.7 °F 49.0 °F 29.83 in SSE 19.6 mph 15.9 mph 94% 0.03 in 0.00 W/m2
18:44 50.6 °F 48.9 °F 29.82 in SSE 17.3 mph 15.6 mph 94% 0.03 in 0.00 W/m2
18:49 50.5 °F 48.8 °F 29.82 in SSW 18.4 mph 13.0 mph 94% 0.04 in 0.00 W/m2
18:54 50.4 °F 48.7 °F 29.82 in SE 23.0 mph 15.2 mph 94% 0.04 in 0.00 W/m2
18:59 50.4 °F 48.7 °F 29.82 in SSE 27.0 mph 16.4 mph 94% 0.04 in 0.00 W/m2
19:04 50.3 °F 48.6 °F 29.82 in SSW 20.7 mph 15.8 mph 94% 0.04 in 0.00 W/m2
19:09 50.3 °F 48.6 °F 29.83 in SSE 21.9 mph 13.4 mph 94% 0.04 in 0.00 W/m2
19:14 50.3 °F 48.6 °F 29.82 in SSE 19.6 mph 13.1 mph 94% 0.04 in 0.00 W/m2
19:19 50.3 °F 48.6 °F 29.83 in SSE 21.0 mph 13.5 mph 94% 0.03 in 0.00 W/m2
19:24 50.4 °F 48.7 °F 29.83 in South 18.4 mph 11.6 mph 94% 0.04 in 0.00 W/m2
19:29 50.4 °F 48.7 °F 29.83 in SSE 19.6 mph 13.4 mph 94% 0.03 in 0.00 W/m2
19:34 50.4 °F 48.7 °F 29.84 in South 12.7 mph 8.9 mph 94% 0.03 in 0.00 W/m2
19:39 50.2 °F 48.5 °F 29.83 in SSW 11.5 mph 5.0 mph 94% 0.02 in 0.00 W/m2
19:44 49.9 °F 48.2 °F 29.84 in South 5.8 mph 4.3 mph 94% 0.03 in 0.00 W/m2
19:49 49.7 °F 48.0 °F 29.84 in SSW 11.5 mph 6.8 mph 94% 0.02 in 0.00 W/m2
19:54 49.6 °F 47.9 °F 29.84 in SSW 10.4 mph 0.9 mph 94% 0.02 in 0.00 W/m2
19:59 49.8 °F 48.1 °F 29.84 in South 9.0 mph 6.4 mph 94% 0.02 in 0.00 W/m2
20:04 49.9 °F 48.2 °F 29.84 in South 9.2 mph 5.7 mph 94% 0.02 in 0.00 W/m2
20:09 49.8 °F 48.1 °F 29.84 in SSE 10.4 mph 7.1 mph 94% 0.02 in 0.00 W/m2
20:14 49.7 °F 48.0 °F 29.84 in South 10.4 mph 5.7 mph 94% 0.02 in 0.00 W/m2
20:19 49.6 °F 47.9 °F 29.84 in SSW 8.1 mph 4.6 mph 94% 0.02 in 0.00 W/m2
20:24 49.5 °F 47.8 °F 29.85 in South 8.1 mph 4.0 mph 94% 0.01 in 0.00 W/m2
20:29 49.4 °F 47.7 °F 29.85 in SSW 10.4 mph 5.7 mph 94% 0.02 in 0.00 W/m2
20:34 49.3 °F 47.6 °F 29.85 in South 8.1 mph 4.6 mph 94% 0.02 in 0.00 W/m2
20:39 49.3 °F 47.6 °F 29.85 in SSW 9.2 mph 5.7 mph 94% 0.02 in 0.00 W/m2
20:44 49.3 °F 47.6 °F 29.85 in SSE 16.1 mph 5.4 mph 94% 0.01 in 0.00 W/m2
20:49 49.4 °F 47.7 °F 29.85 in SSE 11.5 mph 5.8 mph 94% 0.01 in 0.00 W/m2
20:54 49.4 °F 47.7 °F 29.85 in SSW 8.1 mph 5.2 mph 94% 0.01 in 0.00 W/m2
20:59 49.4 °F 47.7 °F 29.85 in South 11.5 mph 6.5 mph 94% 0.01 in 0.00 W/m2
21:04 49.2 °F 47.3 °F 29.85 in SSW 10.4 mph 6.5 mph 93% 0.01 in 0.00 W/m2
21:09 49.1 °F 47.2 °F 29.85 in SSW 11.5 mph 7.6 mph 93% 0.01 in 0.00 W/m2
21:14 48.8 °F 46.9 °F 29.86 in SSW 11.5 mph 5.7 mph 93% 0.01 in 0.00 W/m2
21:19 48.6 °F 46.4 °F 29.86 in SW 10.0 mph 5.1 mph 92% 0.01 in 0.00 W/m2
21:24 48.4 °F 46.2 °F 29.86 in SSW 6.9 mph 5.0 mph 92% 0.01 in 0.00 W/m2
21:29 48.2 °F 46.0 °F 29.86 in SSW 11.5 mph 5.6 mph 92% 0.00 in 0.00 W/m2
21:34 47.9 °F 45.7 °F 29.86 in SSE 13.8 mph 6.5 mph 92% 0.00 in 0.00 W/m2
21:39 47.7 °F 45.5 °F 29.86 in SE 10.4 mph 4.1 mph 92% 0.00 in 0.00 W/m2
21:44 47.4 °F 45.2 °F 29.86 in WSW 8.1 mph 5.8 mph 92% 0.00 in 0.00 W/m2
21:49 47.2 °F 45.0 °F 29.86 in SW 9.2 mph 5.8 mph 92% 0.00 in 0.00 W/m2
21:54 47.1 °F 44.9 °F 29.87 in SW 6.9 mph 5.3 mph 92% 0.00 in 0.00 W/m2
21:59 46.9 °F 44.7 °F 29.87 in SSW 11.5 mph 5.4 mph 92% 0.00 in 0.00 W/m2
22:04 46.9 °F 44.7 °F 29.87 in South 7.0 mph 5.5 mph 92% 0.00 in 0.00 W/m2
22:09 46.9 °F 44.7 °F 29.87 in SSE 9.2 mph 5.6 mph 92% 0.00 in 0.00 W/m2
22:14 47.1 °F 44.9 °F 29.87 in WSW 11.5 mph 4.9 mph 92% 0.00 in 0.00 W/m2
22:19 47.2 °F 45.0 °F 29.87 in SSW 10.4 mph 5.7 mph 92% 0.00 in 0.00 W/m2
22:24 47.3 °F 45.1 °F 29.87 in SSW 9.2 mph 5.2 mph 92% 0.00 in 0.00 W/m2
22:29 47.4 °F 45.2 °F 29.87 in SSE 7.0 mph 4.7 mph 92% 0.00 in 0.00 W/m2
22:34 47.4 °F 44.9 °F 29.87 in SSW 11.5 mph 5.4 mph 91% 0.00 in 0.00 W/m2
22:39 47.4 °F 44.9 °F 29.87 in SW 17.3 mph 7.3 mph 91% 0.00 in 0.00 W/m2
22:44 47.5 °F 45.0 °F 29.87 in SSW 10.4 mph 4.2 mph 91% 0.00 in 0.00 W/m2
22:49 47.5 °F 44.7 °F 29.87 in WSW 8.1 mph 6.5 mph 90% 0.00 in 0.00 W/m2
22:54 47.5 °F 44.7 °F 29.87 in SW 10.4 mph 5.8 mph 90% 0.00 in 0.00 W/m2
22:59 47.5 °F 44.7 °F 29.87 in SSW 11.5 mph 7.9 mph 90% 0.00 in 0.00 W/m2
23:04 47.5 °F 44.7 °F 29.88 in SSW 9.2 mph 3.8 mph 90% 0.00 in 0.00 W/m2
23:09 47.4 °F 44.6 °F 29.88 in SSW 11.5 mph 6.4 mph 90% 0.00 in 0.00 W/m2
23:14 47.5 °F 44.7 °F 29.88 in South 8.1 mph 4.8 mph 90% 0.00 in 0.00 W/m2
23:19 47.4 °F 44.6 °F 29.88 in SSW 9.2 mph 5.8 mph 90% 0.00 in 0.00 W/m2
23:24 47.4 °F 44.6 °F 29.88 in SSW 11.5 mph 6.6 mph 90% 0.00 in 0.00 W/m2
23:29 47.3 °F 44.5 °F 29.88 in South 11.5 mph 8.9 mph 90% 0.00 in 0.00 W/m2
23:34 47.3 °F 44.5 °F 29.88 in SSW 7.0 mph 6.3 mph 90% 0.00 in 0.00 W/m2
23:39 47.2 °F 44.4 °F 29.88 in SW 8.1 mph 8.8 mph 90% 0.00 in 0.00 W/m2
23:44 47.2 °F 44.4 °F 29.88 in SSE 9.2 mph 5.4 mph 90% 0.00 in 0.00 W/m2
23:49 47.2 °F 44.4 °F 29.89 in SSW 9.2 mph 3.2 mph 90% 0.00 in 0.00 W/m2
23:54 47.1 °F 44.3 °F 29.89 in SSE 9.2 mph 6.1 mph 90% 0.00 in 0.00 W/m2
23:59 47.0 °F 44.5 °F 29.89 in SSE 8.1 mph 3.6 mph 91% 0.00 in 0.00 W/m2
Bourbonnais, Illinois, USA
Compliments of Weather Underground - 4 mb